Simultaneous Nadir Overpasses (SNOs) Predictions

Prediction of SNOs between FY3D and LANDSAT-8 Satellite Orbit:

Table of predicted SNOs for the next 14.0 days since TLE Epoch: 9/21/2024
Index Date (FY3D) Time (FY3D) Lat,Lon (FY3D) SZA (FY3D ) Date (LANDSAT-8) Time (LANDSAT-8) Lat,Lon (LANDSAT-8) SZA (LANDSAT-8 ) Distance(km) Time Diff (sec)
1 09/22/2024 11:52:56 -74.78,-173.34 105.21 09/22/2024 11:53:29 -74.80,-173.39 105.19 2.48 33
2 09/22/2024 12:43:41 74.74, -5.91 74.77 09/22/2024 12:42:56 74.73, -5.94 74.75 2.02 45
3 09/25/2024 03:19:26 74.84, 134.92 75.89 09/25/2024 03:20:28 74.82, 134.92 75.88 2.43 62
4 09/25/2024 04:10:09 -74.77, -57.54 104.17 09/25/2024 04:09:57 -74.75, -57.62 104.19 2.92 12
5 09/27/2024 19:36:38 74.80,-109.20 76.90 09/27/2024 19:36:54 74.82,-109.19 76.92 2.02 16
6 09/27/2024 20:27:22 -74.77, 58.21 103.12 09/27/2024 20:26:23 -74.75, 58.27 103.14 2.34 59
7 09/30/2024 11:03:06 -74.85,-160.89 102.03 09/30/2024 11:03:53 -74.85,-160.85 102.01 1.35 47
8 09/30/2024 11:53:50 74.78, 6.63 77.93 09/30/2024 11:53:20 74.77, 6.57 77.91 1.90 30
9 10/03/2024 02:29:35 74.97, 147.19 79.12 10/03/2024 02:30:47 74.92, 147.59 79.10 12.96 72
10 10/03/2024 03:20:17 -74.83, -45.08 100.99 10/03/2024 03:20:17 -74.80, -45.07 101.02 3.16 0



Historial Predications of SNOs between FY3D and LANDSAT-8
